W0ZMA Weather Reports


Display with metric or nautical units.
time (UTC)temp
F
wind
direction
speed
MPH
gust
MPH
rain 1hr
in
rain 24hr
in
rain mn
in
humidity
%
barometer
mb
20260510150039 70 211 0.0 4.0 4.75 1.07 7.16 77 1014.9
20260510144541 68 230 0.0 2.0 3.01 1.04 5.42 82 1014.8
20260510143040 66 230 0.0 4.0 0.40 7.86 2.81 88 1015.1
20260510141533 64 228 0.0 3.0 0.10 7.56 2.50 94 1015.4
20260510140021 62 223 0.0 3.0 0.00 7.46 2.41 98 1015.2
20260510134517 62 225 0.0 2.0 0.00 7.46 2.41 99 1015.2
20260510133017 61 225 0.0 2.0 0.00 7.46 2.41 99 1015.2
20260510131509 60 225 0.0 1.0 0.00 7.46 2.41 99 1015.1
20260510130006 58 225 0.0 0.0 0.00 7.46 2.41 99 1015.0
20260510124502 56 225 0.0 0.0 0.00 8.96 2.41 99 1014.9
20260510123100 54 225 0.0 0.0 0.00 8.96 2.41 99 1014.9
20260510121557 53 225 0.0 0.0 0.00 8.96 2.41 98 1014.7
20260510120056 53 225 0.0 0.0 0.00 8.96 2.41 98 1014.7
20260510114553 52 225 0.0 0.0 0.00 9.08 2.41 98 1014.2
20260510113049 52 225 0.0 0.0 0.00 9.08 2.41 97 1013.9
20260510111554 52 225 0.0 0.0 0.00 9.08 2.41 97 1013.6
20260510110048 52 225 0.0 0.0 0.00 9.08 2.41 97 1013.4
20260510104549 52 225 0.0 0.0 0.00 9.44 2.41 97 1013.2
20260510103046 52 225 0.0 0.0 0.00 9.44 2.41 97 1013.0
20260510101536 53 225 0.0 0.0 0.00 9.44 2.41 97 1012.7
20260510100035 53 225 0.0 0.0 0.00 9.44 2.41 97 1012.6
20260510094535 53 225 0.0 0.0 0.00 9.44 2.41 97 1012.7
20260510093040 54 225 0.0 0.0 0.00 9.44 2.41 97 1012.6
20260510091534 54 225 0.0 0.0 0.00 9.44 2.41 97 1012.5
20260510090033 54 225 0.0 0.0 0.00 9.44 2.41 98 1012.5
20260510084532 54 225 0.0 0.0 0.00 1.13 2.41 97 1012.3
20260510083035 53 225 0.0 0.0 0.00 1.13 2.41 97 1012.2
20260510081538 53 225 0.0 0.0 0.00 1.13 2.41 97 1012.1
20260510080029 53 225 0.0 0.0 0.00 1.13 2.41 97 1012.2
20260510074526 53 225 0.0 0.0 0.00 1.86 2.41 97 1012.2
20260510073024 53 225 0.0 0.0 0.22 1.86 2.41 97 1012.1
20260510071521 53 225 0.0 0.0 0.32 1.86 2.41 96 1011.9
20260510070024 53 225 0.0 0.0 0.32 1.86 2.41 96 1011.7
20260510064528 53 225 0.0 0.0 0.49 3.13 2.41 96 1011.7
20260510063031 53 225 0.0 0.0 0.17 3.10 2.09 96 1011.8
20260510061520 53 225 0.0 0.0 0.26 3.10 2.09 95 1011.7
20260510060033 53 225 0.0 0.0 2.09 3.10 2.09 95 1011.5
20260510054522 53 225 0.0 0.0 1.94 3.40 1.92 95 1011.7
20260510053020 53 225 0.0 0.0 1.96 3.40 1.92 94 1011.7
20260510051519 53 225 0.0 0.0 2.74 3.39 1.83 94 1011.6
20260510050115 53 225 0.0 0.0 3.52 3.21 0.00 93 1011.5
20260510044529 54 225 0.0 0.0 3.51 3.21 3.20 92 1011.3
20260510043007 54 225 0.0 0.0 3.51 3.20 3.20 92 1011.4
20260510041505 55 225 0.0 0.0 2.40 3.09 3.09 91 1011.5
20260510040005 55 225 0.0 0.0 0.02 2.86 2.85 91 1011.5
20260510034505 56 225 0.0 0.0 0.02 2.92 2.85 90 1011.5
20260510033005 56 225 0.0 0.0 0.00 2.92 2.85 89 1011.5
20260510031504 57 225 0.0 0.0 0.00 2.92 2.85 88 1011.5
20260510030001 58 225 0.0 0.0 0.00 2.92 2.85 86 1011.3
20260510024600 58 225 0.0 0.0 0.00 2.92 2.85 86 1011.2
20260510023057 59 225 0.0 0.0 0.00 2.92 2.85 84 1011.0
20260510021555 60 225 0.0 0.0 0.00 2.92 2.85 81 1010.7
20260510020053 61 225 0.0 0.0 0.00 2.92 2.85 80 1010.5
20260510014558 62 225 0.0 0.0 0.00 3.08 2.85 78 1010.1
20260510013048 64 225 0.0 0.0 0.00 3.08 2.85 78 1010.0
20260510011547 66 225 0.0 0.0 0.00 3.08 2.85 76 1009.9
20260510010045 67 225 0.0 0.0 0.00 3.08 2.85 72 1009.8
20260510004545 69 225 0.0 0.0 0.00 4.49 2.85 69 1009.7
20260510003050 70 225 0.0 0.0 0.00 4.49 2.85 66 1009.6
20260510001543 72 225 0.0 0.0 0.00 4.49 2.85 62 1009.3
20260510000052 73 225 0.0 0.0 0.00 4.49 2.85 58 1009.3
20260509234554 74 225 0.0 0.0 0.00 5.89 2.85 55 1009.3
20260509233046 75 225 0.0 2.0 0.00 5.89 2.85 52 1009.1
20260509231541 76 226 0.0 0.0 0.00 5.89 2.85 57 1009.0
20260509230041 77 226 0.0 0.0 0.00 5.89 2.85 51 1008.9
20260509224540 77 226 0.0 0.0 0.00 7.29 2.85 53 1008.9
20260509223045 80 227 0.0 3.0 0.00 7.29 2.85 43 1009.0
20260509221538 80 165 0.0 2.0 0.00 7.29 2.85 47 1008.8
20260509220037 80 192 0.0 2.0 0.00 7.29 2.85 43 1008.9
20260509214536 80 259 1.0 4.0 0.00 8.54 2.85 46 1008.9
20260509213034 79 206 0.0 3.0 0.00 8.54 2.85 49 1008.8
20260509211532 79 207 0.0 3.0 0.00 8.54 2.85 46 1008.8
20260509210035 79 274 0.0 5.0 0.00 8.54 2.85 49 1008.7
20260509204531 79 207 0.0 3.0 0.00 8.85 2.85 47 1008.8
20260509203029 79 217 0.0 5.0 0.00 8.85 2.85 50 1008.8
20260509201524 78 292 1.0 4.0 0.00 8.85 2.85 49 1008.8
20260509200023 78 307 0.0 2.0 0.00 8.85 2.85 52 1009.0
20260509194522 78 290 0.0 2.0 0.00 8.85 2.85 53 1009.1
20260509193027 77 173 0.0 5.0 0.00 8.85 2.85 56 1009.2
20260509191519 77 159 1.0 3.0 0.00 8.85 2.85 58 1009.4
20260509190022 77 164 0.0 4.0 0.00 8.85 2.85 55 1009.6
20260509184520 77 277 0.0 3.0 0.00 8.88 2.85 56 1009.7
20260509183014 76 290 0.0 4.0 0.00 8.88 2.85 58 1009.8
20260509181514 76 284 0.0 3.0 0.00 8.88 2.85 60 1009.7
20260509180010 75 261 0.0 4.0 0.00 8.88 2.85 57 1009.6
20260509174512 75 257 0.0 3.0 0.00 9.75 2.85 59 1009.6
20260509173003 74 275 0.0 4.0 0.00 9.75 2.85 61 1009.7
20260509171627 74 311 0.0 4.0 0.00 9.75 2.85 63 1009.7
20260509170057 73 277 0.0 3.0 0.00 9.75 2.85 65 1009.6
20260509164553 72 300 0.0 4.0 0.00 9.96 2.85 63 1009.7
20260509163051 72 238 0.0 3.0 0.00 9.96 2.85 65 1009.7
20260509161549 72 276 0.0 4.0 0.00 9.96 2.85 66 1009.6
20260509160042 71 288 0.0 4.0 0.00 9.96 2.85 67 1009.6
20260509154538 70 285 0.0 3.0 0.38 9.97 2.85 70 1009.5
20260509153037 69 287 0.0 4.0 1.49 9.97 2.85 72 1009.6
20260509151533 68 290 1.0 5.0 1.50 9.97 2.85 74 1009.6